This is the latest recevied weather packets stored in our database for station/object WX5RP. If no packets are shown the sender has not sent any weather packets the latest 10 day(s).
| Time | Temp. | Humidity | Pressure | Rain* | Wind** | Luminosity | Snow |
|---|---|---|---|---|---|---|---|
| 1778177116 | 20.56° C | 32% | 1019 hPa | 0 mm | - | 906 W/m² | - |
| 1778176516 | 20° C | 31% | 1019 hPa | 0 mm | - | 887 W/m² | - |
| 1778175916 | 20° C | 34% | 1019.1 hPa | 0 mm | - | 860 W/m² | - |
| 1778175317 | 20° C | 31% | 1019.2 hPa | 0 mm | - | 842 W/m² | - |
| 1778174716 | 19.44° C | 34% | 1019.3 hPa | 0 mm | - | 821 W/m² | - |
| 1778174116 | 18.89° C | 38% | 1019.3 hPa | 0 mm | - | 791 W/m² | - |
| 1778173516 | 18.33° C | 36% | 1019.3 hPa | 0 mm | - | 775 W/m² | - |
| 1778172916 | 17.78° C | 36% | 1019.4 hPa | 0 mm | - | 752 W/m² | - |
| 1778172315 | 17.78° C | 39% | 1019.7 hPa | 0 mm | - | 715 W/m² | - |
| 1778171716 | 17.22° C | 40% | 1019.6 hPa | 0 mm | - | 683 W/m² | - |
| 1778171116 | 17.22° C | 46% | 1019.7 hPa | 0 mm | - | 644 W/m² | - |
| 1778170515 | 16.67° C | 47% | 1019.7 hPa | 0 mm | - | 647 W/m² | - |
| 1778169916 | 16.11° C | 48% | 1019.2 hPa | 0 mm | - | 614 W/m² | - |
| 1778169315 | 15.56° C | 50% | 1019.7 hPa | 0 mm | - | 575 W/m² | - |
| 1778168715 | 15.56° C | 53% | 1020 hPa | 0 mm | - | 505 W/m² | - |
| 1778168116 | 15° C | 55% | 1020.5 hPa | 0 mm | - | 515 W/m² | - |
| 1778167515 | 13.89° C | 57% | 1020.5 hPa | 0 mm | - | 485 W/m² | - |
| 1778166916 | 12.78° C | 63% | 1020.5 hPa | 0 mm | - | 441 W/m² | - |
| 1778166321 | 12.22° C | 65% | 1020 hPa | 0 mm | - | 417 W/m² | - |
| 1778165717 | 11.67° C | 67% | 1020.6 hPa | 0 mm | - | 375 W/m² | - |
| 1778165117 | 10.56° C | 71% | 1020.3 hPa | 0 mm | - | 340 W/m² | - |
| 1778164517 | 10° C | 76% | 1020.3 hPa | 0 mm | - | 272 W/m² | - |
| 1778163917 | 8.89° C | 78% | 1020 hPa | 0 mm | - | 264 W/m² | - |
| 1778163317 | 7.78° C | 81% | 1020 hPa | 0 mm | - | 223 W/m² | - |
| 1778162717 | 6.67° C | 82% | 1019.5 hPa | 0 mm | - | 183 W/m² | - |
* Rain latest hour (hover to see other rain measurements)
** Current wind speed in m/s (hover to see current wind gust speed)